Russell, KS

8:31 PM CDT on July 24, 2017 (GMT -0500)
Russell Municipal

Weather History for KRSL - April, 2013

Change the Weather History Date:

Friday, April 19, 2013

  Actual Average Record
Temperature  
Mean Temperature 44 °F -  
Max Temperature 60 °F 67 °F 92 °F (1961)
Min Temperature 27 °F 43 °F 26 °F (1953)
Degree Days  
Heating Degree Days 22    
Moisture  
Dew Point 27 °F    
Average Humidity 56    
Maximum Humidity 79    
Minimum Humidity 31    
Precipitation  
Precipitation 0.00 in - - ()
Sea Level Pressure  
Sea Level Pressure 30.06 in    
Wind  
Wind Speed 14 mph (NW)    
Max Wind Speed 26 mph    
Max Gust Speed 33 mph    
Visibility 10 miles    
Events      
Averages and records for this station are not official NWS values.
T = Trace of Precipitation, MM = Missing Value Source: NWS Daily Summary

Daily Weather History Graph

Daily Weather History Graph

Search for Another Location

Airport or City:

Trip Planner

Search our weather history database for the weather conditions in past years. The results will help you decide how hot, cold, wet, or windy it might be!

Date:

Astronomy

Apr. 19, 2013 Rise Set
Actual Time 6:52 AM CDT 8:16 PM CDT
Civil Twilight 6:24 AM CDT 8:44 PM CDT
Nautical Twilight 5:51 AM CDT 9:17 PM CDT
Astronomical Twilight 5:16 AM CDT 9:53 PM CDT
Moon 2:05 PM CDT (4/19) 3:05 AM CDT (4/19)
Length of Visible Light 14h 19m
Length of Day
13h 23m
First Quarter, 62% of the Moon is Illuminated
Apr 19
First Quarter
Apr 25
Full
May 2
Last Quarter
May 9
New
May 17
First Quarter

Hourly Weather History & Observations

Time (CDT) Temp. Windchill Dew Point Humidity Pressure Visibility Wind Dir Wind Speed Gust Speed Precip Events Conditions
12:53 AM 30.0 °F 19.5 °F 21.9 °F 72% 30.12 in 10.0 mi WNW 13.8 mph - N/A   Clear
1:53 AM 30.0 °F 20.0 °F 21.0 °F 69% 30.11 in 10.0 mi WNW 12.7 mph - N/A   Clear
2:53 AM 28.0 °F 18.6 °F 21.0 °F 75% 30.10 in 10.0 mi West 10.4 mph - N/A   Clear
3:53 AM 28.0 °F 16.5 °F 21.0 °F 75% 30.10 in 10.0 mi West 15.0 mph - N/A   Clear
4:53 AM 28.0 °F 17.5 °F 21.0 °F 75% 30.09 in 10.0 mi WNW 12.7 mph - N/A   Clear
5:53 AM 27.0 °F 16.7 °F 21.0 °F 78% 30.10 in 10.0 mi West 11.5 mph - N/A   Clear
6:53 AM 27.0 °F 15.6 °F 21.0 °F 78% 30.11 in 10.0 mi West 13.8 mph - N/A   Clear
7:53 AM 30.0 °F 21.7 °F 21.9 °F 72% 30.11 in 10.0 mi West 9.2 mph - N/A   Clear
8:53 AM 36.0 °F 27.5 °F 23.0 °F 59% 30.10 in 10.0 mi West 12.7 mph - N/A   Clear
9:53 AM 41.0 °F 34.3 °F 25.0 °F 53% 30.07 in 10.0 mi WSW 11.5 mph - N/A   Clear
10:53 AM 45.0 °F 37.6 °F 27.0 °F 49% 30.06 in 10.0 mi WSW 17.3 mph - N/A   Clear
11:53 AM 51.1 °F - 28.0 °F 41% 30.05 in 10.0 mi WNW 15.0 mph 24.2 mph N/A   Clear
12:53 PM 55.9 °F - 28.0 °F 34% 30.04 in 10.0 mi NW 19.6 mph 31.1 mph N/A   Clear
1:02 PM 55.4 °F - 28.4 °F 36% 30.00 in 10.0 mi WNW 26.5 mph 31.1 mph N/A   Clear
1:53 PM 57.0 °F - 28.9 °F 34% 30.03 in 10.0 mi NW 18.4 mph 28.8 mph N/A   Clear
2:53 PM 57.0 °F - 30.0 °F 36% 30.03 in 10.0 mi NNW 26.5 mph 33.4 mph N/A   Scattered Clouds
3:53 PM 59.0 °F - 28.9 °F 32% 30.02 in 10.0 mi NW 17.3 mph 25.3 mph N/A   Scattered Clouds
4:53 PM 60.1 °F - 28.9 °F 31% 30.01 in 10.0 mi NW 20.7 mph 27.6 mph N/A   Mostly Cloudy
5:53 PM 59.0 °F - 30.0 °F 33% 30.01 in 10.0 mi North 9.2 mph - N/A   Partly Cloudy
6:53 PM 57.9 °F - 30.9 °F 36% 30.02 in 10.0 mi North 10.4 mph - N/A   Mostly Cloudy
7:53 PM 53.1 °F - 30.9 °F 43% 30.02 in 10.0 mi NE 11.5 mph - N/A   Partly Cloudy
8:53 PM 43.0 °F 37.7 °F 32.0 °F 65% 30.05 in 10.0 mi ENE 9.2 mph - N/A   Clear
9:53 PM 39.0 °F 32.8 °F 32.0 °F 76% 30.07 in 10.0 mi ENE 9.2 mph - N/A   Clear
10:53 PM 37.9 °F 30.9 °F 32.0 °F 79% 30.09 in 10.0 mi ENE 10.4 mph - N/A   Clear
11:53 PM 36.0 °F 29.6 °F 30.0 °F 79% 30.09 in 10.0 mi East 8.1 mph - N/A   Clear